Total_Precipitation_Accumulation
1.87 2.32 3.25 3.43 3.31 3.23 2.92 3.65 4.86 5.04 3.51 3.15 3.77 3.68 3.58 3.92 3.96 4.10 4.57 4.79 4.93 4.26
2.33 2.94 3.08 3.40 4.45 5.36 5.05 3.96 4.87 6.62 6.99 5.35 3.96 4.27 4.27 4.03 3.80 3.54 3.44 3.64 4.06 4.65
1.92 2.83 3.54 3.83 4.53 4.92 6.00 6.81 5.64 5.31 5.77 7.57 7.52 5.71 5.11 4.54 4.01 3.97 3.41 3.55 3.48 3.47
2.21 2.62 3.55 3.93 4.72 5.22 5.18 5.82 7.93 7.24 5.78 6.28 7.40 7.17 6.16 5.22 4.38 4.13 4.25 3.93 3.79 3.55
2.96 3.24 3.43 4.07 4.38 4.38 4.52 5.61 6.78 7.78 8.29 7.35 7.20 7.14 7.77 6.88 5.67 4.86 4.49 4.30 4.47 4.58
3.57 3.47 3.69 3.86 3.98 4.07 3.99 4.17 5.57 7.40 8.34 9.18 8.96 8.28 8.19 7.66 6.83 6.65 5.96 5.44 5.07 4.77
3.41 3.75 3.37 3.11 3.31 3.64 3.78 3.92 4.27 5.45 6.65 7.95 8.91 9.24 8.67 8.25 7.64 6.74 6.62 6.53 6.00 5.20
2.89 3.11 3.05 3.36 3.52 3.27 3.61 4.09 4.28 4.57 4.77 5.30 6.99 8.45 8.77 8.33 7.91 7.57 6.71 5.66 5.50 5.88
1.83 1.99 2.38 2.53 2.60 2.42 2.97 3.51 3.61 4.21 4.17 4.63 5.17 6.79 7.03 7.81 8.42 8.84 8.90 8.09 6.73 6.14
1.79 2.16 2.26 2.62 2.62 2.69 2.71 3.00 3.34 3.64 3.42 3.58 4.11 5.20 5.40 6.09 6.09 6.74 7.20 7.50 7.52 6.72
1.51 1.64 1.90 2.13 2.38 2.92 3.41 3.43 3.23 3.16 3.25 3.31 3.90 4.44 3.93 4.48 4.31 4.66 4.80 5.01 5.67 5.90
1.52 1.69 1.76 1.89 2.29 2.42 2.64 2.66 2.78 2.95 2.92 3.02 3.59 4.11 3.67 3.29 2.57 2.90 3.30 3.53 3.82 4.51
1.41 1.76 2.09 2.34 2.30 2.09 2.14 2.50 2.60 2.83 3.13 3.21 2.88 3.52 3.30 3.07 2.74 2.81 2.82 3.01 3.26 4.69
1.60 1.69 1.89 2.05 2.20 2.30 2.28 2.22 2.34 2.60 2.84 3.11 3.12 3.03 3.04 2.94 2.85 3.22 3.22 3.26 3.44 3.80